Location: York
(31.8935°S, 116.7682°E)
Time: 18:14:28
(UTC+08:00)

Hubble Space Telescope - Pass Details

Date: 17 May 2021
Orbit: 535 x 539 km, 28.5° (Epoch: 17 June)

Event Time Altitude Azimuth Distance (km) Brightness Sun altitude
Rises 19:17:43 0° 289° (WNW) 2,686 5.7 -24.3°
Reaches altitude 10° 19:20:02 10° 295° (WNW) 1,797 4.4 -24.8°
Enters shadow 19:23:18 41° 337° (NNW) 795 1.8 -25.4°
